When you browse on this site, cookies collect data to enhance your experience and personalize the content and advertising you see.
Visit our Privacy Policy to learn more. By continuing to use the site, you agree to this use of cookies and data.
  • In Switzerland
  • List of Countries
  • For 7 days
  • Water Temperature
  • Satellite Maps
  • Weather Map
  • Weather Widgets
  • user-avatar
    Login

    Hourly Weather Plavni

    Today, 26 April, Friday

    Time Temperature Precipitation Wind Pressure Humidity
    00:00 +9°C° 0 mm 3 mps 766 mmHg 74%
    01:00 +9°C° 0 mm 2 mps 765 mmHg 76%
    02:00 +9°C° 0 mm 2 mps 765 mmHg 77%
    03:00 +8°C° 0 mm 2 mps 765 mmHg 78%
    04:00 +8°C° 0 mm 2 mps 765 mmHg 79%
    05:00 +8°C° 0 mm 2 mps 765 mmHg 80%
    06:00 +10°C° 0 mm 3 mps 765 mmHg 72%
    07:00 +12°C° 0 mm 3 mps 765 mmHg 64%
    08:00 +14°C° 0 mm 3 mps 765 mmHg 54%
    09:00 +17°C° 0 mm 4 mps 764 mmHg 47%
    10:00 +19°C° 0 mm 4 mps 764 mmHg 41%
    11:00 +21°C° 0 mm 5 mps 764 mmHg 34%
    12:00 +21°C° 0 mm 5 mps 764 mmHg 33%
    13:00 +22°C° 0 mm 5 mps 764 mmHg 32%
    14:00 +22°C° 0 mm 6 mps 764 mmHg 31%
    15:00 +21°C° 0 mm 6 mps 763 mmHg 32%
    16:00 +21°C° 0 mm 6 mps 763 mmHg 34%
    17:00 +20°C° 0 mm 6 mps 763 mmHg 35%
    18:00 +17°C° 0 mm 5 mps 763 mmHg 41%
    19:00 +15°C° 0 mm 4 mps 763 mmHg 48%
    20:00 +13°C° 0 mm 3 mps 763 mmHg 54%
    21:00 +12°C° 0 mm 3 mps 763 mmHg 57%
    22:00 +11°C° 0 mm 3 mps 763 mmHg 60%
    23:00 +11°C° 0 mm 3 mps 763 mmHg 63%

    Tomorrow, 27 April, Saturday

    Time Temperature Precipitation Wind Pressure Humidity
    00:00 +10°C° 0 mm 3 mps 763 mmHg 64%
    01:00 +10°C° 0 mm 3 mps 762 mmHg 65%
    02:00 +10°C° 0 mm 2 mps 762 mmHg 67%
    03:00 +9°C° 0 mm 2 mps 762 mmHg 68%
    04:00 +9°C° 0 mm 3 mps 761 mmHg 69%
    05:00 +9°C° 0 mm 3 mps 761 mmHg 70%
    06:00 +11°C° 0 mm 3 mps 761 mmHg 63%
    07:00 +13°C° 0 mm 4 mps 761 mmHg 56%
    08:00 +15°C° 0 mm 5 mps 761 mmHg 49%
    09:00 +17°C° 0 mm 5 mps 761 mmHg 44%
    10:00 +20°C° 0 mm 6 mps 761 mmHg 39%
    11:00 +21°C° 0 mm 6 mps 760 mmHg 34%
    12:00 +22°C° 0 mm 6 mps 760 mmHg 33%
    13:00 +22°C° 0 mm 6 mps 759 mmHg 32%
    14:00 +23°C° 0 mm 6 mps 759 mmHg 32%
    15:00 +22°C° 0 mm 6 mps 758 mmHg 33%
    16:00 +21°C° 0 mm 6 mps 758 mmHg 35%
    17:00 +20°C° 0 mm 6 mps 758 mmHg 37%
    18:00 +17°C° 0 mm 6 mps 758 mmHg 42%
    19:00 +15°C° 0 mm 5 mps 758 mmHg 48%
    20:00 +13°C° 0 mm 4 mps 758 mmHg 53%
    21:00 +12°C° 0 mm 4 mps 757 mmHg 57%
    22:00 +12°C° 0 mm 4 mps 757 mmHg 60%
    23:00 +11°C° 0 mm 4 mps 757 mmHg 64%

    Day after tomorrow, 28 April, Sunday

    Time Temperature Precipitation Wind Pressure Humidity
    00:00 +11°C° 0 mm 4 mps 757 mmHg 67%
    01:00 +10°C° 0 mm 3 mps 757 mmHg 69%
    02:00 +10°C° 0 mm 3 mps 757 mmHg 72%
    03:00 +10°C° 0 mm 3 mps 756 mmHg 73%
    04:00 +10°C° 0 mm 3 mps 756 mmHg 75%
    05:00 +9°C° 0 mm 3 mps 756 mmHg 76%
    06:00 +11°C° 0 mm 3 mps 756 mmHg 70%
    07:00 +13°C° 0 mm 4 mps 756 mmHg 65%
    08:00 +15°C° 0 mm 4 mps 756 mmHg 59%
    09:00 +18°C° 0 mm 4 mps 756 mmHg 58%
    10:00 +19°C° 0 mm 5 mps 756 mmHg 58%
    11:00 +21°C° 0 mm 5 mps 756 mmHg 57%
    12:00 +21°C° 0 mm 4 mps 756 mmHg 57%
    13:00 +22°C° 0 mm 4 mps 756 mmHg 57%
    14:00 +22°C° 0 mm 4 mps 755 mmHg 57%
    15:00 +22°C° 0 mm 4 mps 755 mmHg 57%
    16:00 +22°C° 0 mm 4 mps 755 mmHg 57%
    17:00 +22°C° 0 mm 5 mps 754 mmHg 56%
    18:00 +20°C° 0 mm 4 mps 755 mmHg 62%
    19:00 +18°C° 0 mm 4 mps 755 mmHg 67%
    20:00 +15°C° 0 mm 4 mps 755 mmHg 72%
    21:00 +15°C° 0.1 mm 4 mps 755 mmHg 75%
    22:00 +14°C° 0.1 mm 3 mps 755 mmHg 78%
    23:00 +13°C° 0.1 mm 3 mps 755 mmHg 80%

    29 April, Monday

    Time Temperature Precipitation Wind Pressure Humidity
    00:00 +13°C° 0 mm 3 mps 755 mmHg 82%
    01:00 +13°C° 0 mm 3 mps 755 mmHg 84%
    02:00 +12°C° 0 mm 3 mps 755 mmHg 86%
    03:00 +12°C° 0 mm 3 mps 755 mmHg 86%
    04:00 +12°C° 0 mm 2 mps 755 mmHg 86%
    05:00 +10°C° 0 mm 2 mps 755 mmHg 86%
    06:00 +12°C° 0 mm 3 mps 755 mmHg 80%
    07:00 +13°C° 0 mm 3 mps 756 mmHg 73%
    08:00 +15°C° 0 mm 4 mps 756 mmHg 66%
    09:00 +17°C° 0 mm 4 mps 756 mmHg 61%
    10:00 +19°C° 0 mm 4 mps 756 mmHg 55%
    11:00 +21°C° 0 mm 5 mps 756 mmHg 50%
    12:00 +21°C° 0 mm 5 mps 756 mmHg 47%
    13:00 +22°C° 0 mm 5 mps 755 mmHg 45%
    14:00 +23°C° 0 mm 5 mps 755 mmHg 42%
    15:00 +23°C° 0 mm 5 mps 755 mmHg 44%
    16:00 +22°C° 0 mm 5 mps 755 mmHg 45%
    17:00 +22°C° 0 mm 5 mps 754 mmHg 47%
    18:00 +20°C° 0 mm 5 mps 755 mmHg 51%
    19:00 +19°C° 0 mm 4 mps 755 mmHg 56%
    20:00 +17°C° 0 mm 3 mps 755 mmHg 60%
    21:00 +17°C° 0 mm 4 mps 755 mmHg 62%
    22:00 +15°C° 0 mm 4 mps 755 mmHg 64%
    23:00 +15°C° 0 mm 4 mps 755 mmHg 66%

    30 April, Tuesday

    Time Temperature Precipitation Wind Pressure Humidity
    00:00 +14°C° 0 mm 4 mps 755 mmHg 68%
    01:00 +14°C° 0 mm 3 mps 755 mmHg 71%
    02:00 +14°C° 0 mm 3 mps 755 mmHg 74%
    03:00 +13°C° 0 mm 3 mps 754 mmHg 77%
    04:00 +12°C° 0 mm 3 mps 754 mmHg 81%
    05:00 +12°C° 0 mm 3 mps 754 mmHg 84%
    06:00 +14°C° 0 mm 3 mps 754 mmHg 76%
    07:00 +16°C° 0 mm 3 mps 754 mmHg 68%
    08:00 +18°C° 0 mm 3 mps 755 mmHg 60%
    09:00 +19°C° 0 mm 4 mps 754 mmHg 55%
    10:00 +20°C° 0 mm 5 mps 754 mmHg 51%
    11:00 +21°C° 0 mm 6 mps 754 mmHg 47%
    12:00 +20°C° 0.1 mm 5 mps 754 mmHg 51%
    13:00 +18°C° 0.1 mm 4 mps 754 mmHg 56%
    14:00 +17°C° 0.1 mm 3 mps 753 mmHg 61%
    15:00 +18°C° 0 mm 3 mps 753 mmHg 55%
    16:00 +20°C° 0 mm 3 mps 753 mmHg 49%
    17:00 +21°C° 0 mm 3 mps 753 mmHg 44%
    18:00 +19°C° 0 mm 3 mps 753 mmHg 50%
    19:00 +18°C° 0 mm 3 mps 753 mmHg 57%
    20:00 +16°C° 0 mm 3 mps 753 mmHg 63%
    21:00 +16°C° 0 mm 3 mps 753 mmHg 65%
    22:00 +16°C° 0 mm 3 mps 753 mmHg 67%
    23:00 +14°C° 0 mm 3 mps 753 mmHg 69%

    1 May, Wednesday

    Time Temperature Precipitation Wind Pressure Humidity
    00:00 +14°C° 0 mm 3 mps 752 mmHg 70%
    01:00 +13°C° 0 mm 3 mps 752 mmHg 72%
    02:00 +13°C° 0 mm 4 mps 752 mmHg 73%
    03:00 +13°C° 0.1 mm 4 mps 752 mmHg 76%
    04:00 +13°C° 0.1 mm 4 mps 752 mmHg 79%
    05:00 +12°C° 0.1 mm 3 mps 752 mmHg 83%
    06:00 +12°C° 0.7 mm 4 mps 752 mmHg 84%
    07:00 +13°C° 0.7 mm 4 mps 752 mmHg 86%
    08:00 +13°C° 0.7 mm 4 mps 752 mmHg 87%
    09:00 +12°C° 2 mm 5 mps 752 mmHg 87%
    10:00 +12°C° 2 mm 5 mps 752 mmHg 88%
    11:00 +11°C° 2 mm 6 mps 752 mmHg 88%
    12:00 +12°C° 0.7 mm 7 mps 753 mmHg 85%
    13:00 +12°C° 0.7 mm 7 mps 753 mmHg 82%
    14:00 +13°C° 0.7 mm 8 mps 753 mmHg 79%
    15:00 +14°C° 0.1 mm 7 mps 753 mmHg 77%
    16:00 +14°C° 0.1 mm 6 mps 753 mmHg 75%
    17:00 +14°C° 0.1 mm 5 mps 754 mmHg 73%
    18:00 +13°C° 0 mm 4 mps 754 mmHg 76%
    19:00 +12°C° 0 mm 3 mps 755 mmHg 78%
    20:00 +11°C° 0 mm 3 mps 755 mmHg 81%
    21:00 +12°C° 0 mm 2 mps 755 mmHg 82%
    22:00 +10°C° 0 mm 2 mps 756 mmHg 83%
    23:00 +10°C° 0 mm 2 mps 756 mmHg 84%
    Show more